Location: Bottenau
(48.5138°N, 8.0462°E)
Time: 05:23:52
(UTC+00:00)

CZ-2C R/B - Pass Details

Date: 18 April 2021
Orbit: 784 x 871 km, 98.2° (Epoch: 09 May)

Event Time Altitude Azimuth Distance (km) Brightness Sun altitude
Rises 18:47:05 0° 12° (NNE) 3,287 5.9 -4.5°
Reaches altitude 10° 18:49:24 10° 11° (N) 2,356 5.2 -4.8°
Maximum altitude 18:54:35 74° 287° (WNW) 825 2.9 -5.6°
Drops below altitude 10° 18:59:47 10° 203° (SSW) 2,370 5.0 -6.4°
Sets 19:02:08 0° 202° (SSW) 3,307 5.8 -6.8°
